This demonstration page uses our WeatherBlox Daily Observations layout. Learn more.

Left ArrowRight Arrow

34.02893, -84.19858

Hourly Observations for June 23, 2020

Temp ( °F °C ) Dew Point ( °F °C ) Humidity (%) Winds ( mph kmh ) Pressure ( in mb ) Visibility ( mi km ) Precip ( " mm )
12:53 am 00:53 Mostly Cloudy 70 21.1 69 20.6 97 97 SSW 3 6 29.96 1015 10 16 0.00 0.00
1:53 am 01:53 Mostly Cloudy 69 20.6 68 20 96 96 S 3 6 29.94 1014 10 16 0.00 0.00
2:40 am 02:40 Cloudy 70 21.1 69 20.6 97 97 SW 9 15 29.94 1014 10 16 0.00 0.00
2:53 am 02:53 Cloudy 70 21.1 69 20.6 97 97 SW 8 13 29.92 1013 10 16 0.00 0.00
3:53 am 03:53 Cloudy 70 21.1 69 20.6 97 97 SW 8 13 29.90 1013 10 16 0.00 0.00
4:53 am 04:53 Cloudy 70 21.1 69 20.6 97 97 SW 8 13 29.91 1013 10 16 0.00 0.00
5:51 am 05:51 Cloudy 72 22 70 21 94 94 SW 7 11 29.92 1013 10 16 0.00 0.00
5:53 am 05:53 Cloudy 71 21.7 70 21.1 96 96 SW 6 9 29.90 1012 10 16 0.00 0.00
6:10 am 06:10 Cloudy 71 21.7 69 20.6 94 94 SW 7 11 29.92 1013 10 16 0.00 0.00
6:53 am 06:53 Cloudy 71 21.7 69 20.6 94 94 SW 12 19 29.92 1013 10 16 0.00 0.00
7:06 am 07:06 Cloudy 71 21.7 69 20.6 94 94 SW 10 17 29.93 1013 10 16 0.00 0.00
7:53 am 07:53 Cloudy 71 21.7 69 20.6 94 94 SW 9 15 29.92 1013 10 16 0.00 0.00
8:53 am 08:53 Cloudy 73 22.8 70 21.1 90 90 SW 12 19 29.92 1013 10 16 0.00 0.00
9:00 am 09:00 Cloudy 73 22.8 70 21.1 90 90 SW 10 17 29.91 1013 10 16 0.00 0.00
9:53 am 09:53 Cloudy 74 23.3 70 21.1 88 88 SW 12 19 29.91 1013 10 16 0.00 0.00
10:00 am 10:00 Mostly Cloudy 76 24.4 70 21.1 82 82 SW 13 20 29.92 1013 10 16 0.00 0.00
10:53 am 10:53 Cloudy 77 25 70 21.1 79 79 SW 10 17 29.91 1013 10 16 0.00 0.00
11:53 am 11:53 Cloudy with Light Rain 76 24.4 70 21.1 82 82 WSW 16 26 29.90 1013 8 13 0.00 0.00
12:53 pm 12:53 Cloudy 78 25.6 70 21.1 76 76 WSW 16 26 29.90 1012 10 16 0.00 0.00
1:53 pm 13:53 Cloudy 80 26.7 71 21.7 74 74 W 13 20 29.87 1012 10 16 0.00 0.00
2:00 pm 14:00 Partly Cloudy 81 27.2 71 21.7 72 72 W 15 24 29.86 1011 10 16 0.00 0.00
2:45 pm 14:45 Mostly Cloudy 82 27.8 72 22.2 72 72 WSW 10 17 29.85 1011 10 16 0.00 0.00
2:53 pm 14:53 Mostly Cloudy 82 27.8 70 21.1 67 67 W 14 22 29.84 1011 10 16 0.00 0.00
3:01 pm 15:01 Mostly Cloudy 81 27.2 70 21.1 69 69 W 8 13 29.84 1010 10 16 0.00 0.00
3:13 pm 15:13 Mostly Cloudy 83 28.3 70 21.1 65 65 W 13 20 29.84 1010 10 16 0.00 0.00
3:53 pm 15:53 Partly Cloudy 83 28.3 70 21.1 65 65 W 9 15 29.82 1010 10 16 0.00 0.00
5:53 pm 17:53 Sunny 84 28.9 69 20.6 61 61 W 10 17 29.81 1010 10 16 0.00 0.00
6:53 pm 18:53 Partly Cloudy 84 28.9 69 20.6 61 61 WSW 9 15 29.80 1009 10 16 0.00 0.00
7:53 pm 19:53 Partly Cloudy 82 27.8 69 20.6 65 65 W 10 17 29.82 1010 10 16 0.00 0.00
8:53 pm 20:53 Clear 80 26.7 69 20.6 69 69 WSW 7 11 29.85 1011 10 16 0.00 0.00
9:53 pm 21:53 Partly Cloudy 79 26.1 69 20.6 72 72 WSW 6 9 29.85 1011 10 16 0.00 0.00
10:53 pm 22:53 Mostly Clear 77 25 67 19.4 71 71 WSW 8 13 29.87 1012 10 16 0.00 0.00
11:53 pm 23:53 Clear 75 23.9 66 18.9 74 74 W 8 13 29.89 1012 10 16 0.00 0.00

Powered by AerisWeather